Date String (YYYY-MM-DD hh:mm:ss) UTC,Instrument flags,absolute air pressure of the measurement (hPa),sample flow rate (lpm),inlet stack bypass flow (lpm),air temperature of the measurement (°C),ambient temperature measured by the external sensor (°C),aerosol sample conditioner tube jacket temperature (°C),OPC LED temperature (°C),internal box temperature (°C),relative humidity of the measurement (%),span deviation,mass concentration of particles derived from Lorenz-Mie calculation of OPC scattering (μg/m³),mass concentration of particles derived from Lorenz-Mie calculation of OPC scattering (μg/m³),mass concentration of particles derived from Lorenz-Mie calculation of OPC scattering (μg/m³)
DateTimeUTC,F1_M11,P_M11,Q1_M11,Q2_M11,T1_M11,T2_M11,T3_M11,T4_M11,T5_M11,U1_M11,ZSPAN_M11,X0_M11,X2_M11,X1_M11
2023-07-01 01:00:00,SystemResetWarning,0833.4,5.00,000.00,029.4,028.2,000.0,037.9,031.1,29.8,0000.0,0008.81,0004.29,0003.62
2023-07-01 01:01:00,SystemResetWarning,0833.4,5.00,000.00,029.5,028.3,000.0,037.9,031.1,29.8,0000.0,0008.48,0004.24,0003.61
2023-07-01 01:02:00,SystemResetWarning,0833.3,5.00,000.00,029.5,028.3,000.0,037.9,031.2,29.9,0000.0,0008.79,0004.26,0003.60
2023-07-01 01:03:00,SystemResetWarning,0833.3,5.00,000.00,029.5,028.4,000.0,037.9,031.2,30.1,0000.0,0009.03,0004.25,0003.59
2023-07-01 01:04:00,SystemResetWarning,0833.3,4.98,000.00,029.5,027.2,000.0,037.9,031.1,29.9,0000.0,0009.05,0004.27,0003.59
2023-07-01 01:05:00,SystemResetWarning,0833.2,5.02,000.00,029.5,025.7,000.0,037.8,030.9,29.8,0000.0,0008.90,0004.28,0003.57
2023-07-01 01:06:00,SystemResetWarning,0833.2,5.01,000.00,029.4,025.4,000.0,037.7,030.6,30.2,0000.0,0008.62,0004.24,0003.55
2023-07-01 01:07:00,SystemResetWarning,0833.2,4.99,000.00,029.3,025.7,000.0,037.8,030.5,30.4,0000.0,0008.70,0004.17,0003.52
2023-07-01 01:08:00,SystemResetWarning,0833.2,5.01,000.00,029.2,026.1,000.0,037.8,030.5,30.6,0000.0,0008.73,0004.17,0003.50
2023-07-01 01:09:00,SystemResetWarning,0833.2,4.99,000.00,029.2,026.4,000.0,037.8,030.6,30.8,0000.0,0008.67,0004.12,0003.48
2023-07-01 01:10:00,SystemResetWarning,0833.2,5.00,000.00,029.2,026.8,000.0,037.8,030.7,30.5,0000.0,0008.73,0004.10,0003.47
2023-07-01 01:11:00,SystemResetWarning,0833.2,5.00,000.00,029.2,027.1,000.0,037.8,030.8,29.9,0000.0,0008.70,0004.07,0003.45
2023-07-01 01:12:00,SystemResetWarning,0833.2,5.02,000.00,029.3,027.4,000.0,037.8,030.8,29.9,0000.0,0009.26,0004.03,0003.43
2023-07-01 01:13:00,SystemResetWarning,0833.2,4.99,000.00,029.3,027.6,000.0,037.8,030.9,29.6,0000.0,0009.17,0003.98,0003.41
2023-07-01 01:14:00,SystemResetWarning,0833.2,4.99,000.00,029.3,027.8,000.0,037.8,030.9,29.9,0000.0,0008.71,0003.94,0003.40
2023-07-01 01:15:00,SystemResetWarning,0833.3,5.00,000.00,029.3,027.9,000.0,037.8,031.0,30.0,0000.0,0008.56,0003.88,0003.38
2023-07-01 01:16:00,SystemResetWarning,0833.3,5.01,000.00,029.4,028.1,000.0,037.9,031.0,30.0,0000.0,0008.44,0003.84,0003.37
2023-07-01 01:17:00,SystemResetWarning,0833.3,5.01,000.00,029.4,028.2,000.0,037.9,031.1,30.3,0000.0,0008.33,0003.79,0003.35
2023-07-01 01:18:00,SystemResetWarning,0833.2,5.00,000.00,029.5,028.3,000.0,037.9,031.1,30.6,0000.0,0008.18,0003.75,0003.33
2023-07-01 01:19:00,SystemResetWarning,0833.2,5.00,000.00,029.5,028.3,000.0,037.9,031.1,31.2,0000.0,0008.05,0003.70,0003.33
2023-07-01 01:20:00,SystemResetWarning,0833.3,5.00,000.00,029.5,028.4,000.0,037.9,031.2,31.3,0000.0,0007.89,0003.64,0003.32
2023-07-01 01:21:00,SystemResetWarning,0833.2,4.99,000.00,029.6,028.2,000.0,037.9,031.2,31.5,0000.0,0007.77,0003.62,0003.31
2023-07-01 01:22:00,SystemResetWarning,0833.2,4.99,000.00,029.5,026.5,000.0,037.8,030.9,31.7,0000.0,0007.68,0003.62,0003.30
2023-07-01 01:23:00,SystemResetWarning,0833.2,5.01,000.00,029.4,025.4,000.0,037.7,030.7,31.9,0000.0,0007.23,0003.67,0003.32
2023-07-01 01:24:00,SystemResetWarning,0833.2,5.01,000.00,029.3,025.4,000.0,037.7,030.5,32.1,0000.0,0006.76,0003.69,0003.34
2023-07-01 01:25:00,SystemResetWarning,0833.2,5.00,000.00,029.2,025.7,000.0,037.7,030.5,32.5,0000.0,0006.73,0003.72,0003.36
2023-07-01 01:26:00,SystemResetWarning,0833.2,5.00,000.00,029.2,026.1,000.0,037.8,030.5,32.7,0000.0,0006.89,0003.75,0003.37
2023-07-01 01:27:00,SystemResetWarning,0833.2,5.00,000.00,029.2,026.5,000.0,037.8,030.6,32.8,0000.0,0007.03,0003.76,0003.37
2023-07-01 01:28:00,SystemResetWarning,0833.2,4.99,000.00,029.2,026.8,000.0,037.8,030.7,32.9,0000.0,0006.93,0003.78,0003.39
2023-07-01 01:29:00,SystemResetWarning,0833.2,5.00,000.00,029.2,027.1,000.0,037.8,030.7,32.9,0000.0,0006.26,0003.85,0003.41
2023-07-01 01:30:00,SystemResetWarning,0833.3,5.01,000.00,029.2,027.3,000.0,037.8,030.8,32.7,0000.0,0006.47,0003.89,0003.42
2023-07-01 01:31:00,SystemResetWarning,0833.3,5.00,000.00,029.2,027.5,000.0,037.8,030.8,32.7,0000.0,0006.61,0003.92,0003.43
2023-07-01 01:32:00,SystemResetWarning,0833.4,4.99,000.00,029.3,027.7,000.0,037.8,030.9,32.5,0000.0,0006.77,0003.94,0003.44
2023-07-01 01:33:00,SystemResetWarning,0833.4,5.00,000.00,029.3,027.8,000.0,037.8,030.9,32.2,0000.0,0006.87,0003.96,0003.43
2023-07-01 01:34:00,SystemResetWarning,0833.4,5.00,000.00,029.3,028.0,000.0,037.8,030.9,32.0,0000.0,0006.75,0003.92,0003.41
2023-07-01 01:35:00,SystemResetWarning,0833.4,4.99,000.00,029.3,028.1,000.0,037.8,031.0,31.8,0000.0,0006.73,0003.89,0003.39
2023-07-01 01:36:00,SystemResetWarning,0833.4,4.99,000.00,029.4,028.2,000.0,037.8,031.0,31.5,0000.0,0006.75,0003.88,0003.37
2023-07-01 01:37:00,SystemResetWarning,0833.4,5.00,000.00,029.4,028.2,000.0,037.9,031.1,31.5,0000.0,0006.84,0003.89,0003.36
2023-07-01 01:38:00,SystemResetWarning,0833.4,5.01,000.00,029.5,028.3,000.0,037.9,031.1,31.7,0000.0,0006.72,0003.87,0003.35
2023-07-01 01:39:00,SystemResetWarning,0833.4,5.00,000.00,029.5,028.4,000.0,037.9,031.1,31.9,0000.0,0007.03,0003.83,0003.34
2023-07-01 01:40:00,SystemResetWarning,0833.5,4.99,000.00,029.5,028.4,000.0,037.9,031.2,31.9,0000.0,0007.05,0003.76,0003.32
2023-07-01 01:41:00,SystemResetWarning,0833.4,5.00,000.00,029.5,028.5,000.0,038.0,031.2,31.7,0000.0,0007.01,0003.75,0003.31
2023-07-01 01:42:00,SystemResetWarning,0833.4,5.00,000.00,029.6,028.0,000.0,037.9,031.2,31.6,0000.0,0006.89,0003.73,0003.29
2023-07-01 01:43:00,SystemResetWarning,0833.4,5.01,000.00,029.5,026.1,000.0,037.8,031.0,31.8,0000.0,0006.78,0003.70,0003.28
2023-07-01 01:44:00,SystemResetWarning,0833.4,5.00,000.00,029.5,025.3,000.0,037.7,030.8,31.9,0000.0,0006.78,0003.70,0003.28
2023-07-01 01:45:00,SystemResetWarning,0833.4,5.01,000.00,029.3,025.4,000.0,037.7,030.4,31.2,0000.0,0006.98,0003.70,0003.30
2023-07-01 01:46:00,SystemResetWarning,0833.4,5.01,000.00,029.2,025.8,000.0,037.8,030.4,30.7,0000.0,0007.46,0003.72,0003.32
2023-07-01 01:47:00,SystemResetWarning,0833.5,5.00,000.00,029.2,026.2,000.0,037.8,030.6,31.5,0000.0,0007.32,0003.70,0003.33
2023-07-01 01:48:00,SystemResetWarning,0833.5,4.99,000.00,029.2,026.5,000.0,037.8,030.7,32.9,0000.0,0007.30,0003.69,0003.34
2023-07-01 01:49:00,SystemResetWarning,0833.6,5.01,000.00,029.2,026.9,000.0,037.8,030.7,33.1,0000.0,0007.40,0003.68,0003.35
2023-07-01 01:50:00,SystemResetWarning,0833.6,5.00,000.00,029.2,027.2,000.0,037.8,030.8,33.3,0000.0,0007.37,0003.70,0003.36
2023-07-01 01:51:00,SystemResetWarning,0833.6,4.99,000.00,029.3,027.4,000.0,037.8,030.8,33.3,0000.0,0007.11,0003.74,0003.37
2023-07-01 01:52:00,SystemResetWarning,0833.7,4.99,000.00,029.3,027.6,000.0,037.8,030.9,33.3,0000.0,0007.28,0003.77,0003.39
2023-07-01 01:53:00,SystemResetWarning,0833.7,5.00,000.00,029.3,027.8,000.0,037.8,030.9,33.4,0000.0,0007.68,0003.81,0003.43
2023-07-01 01:54:00,SystemResetWarning,0833.6,5.00,000.00,029.3,027.9,000.0,037.8,030.9,33.3,0000.0,0007.98,0003.85,0003.46
2023-07-01 01:55:00,SystemResetWarning,0833.6,5.00,000.00,029.4,028.0,000.0,037.8,031.0,33.0,0000.0,0007.99,0003.85,0003.47
2023-07-01 01:56:00,SystemResetWarning,0833.6,5.01,000.00,029.4,028.2,000.0,037.9,031.0,32.9,0000.0,0007.89,0003.85,0003.48
2023-07-01 01:57:00,SystemResetWarning,0833.6,5.00,000.00,029.4,028.2,000.0,037.9,031.1,32.9,0000.0,0007.59,0003.85,0003.48
2023-07-01 01:58:00,SystemResetWarning,0833.5,5.01,000.00,029.5,028.3,000.0,037.9,031.1,33.1,0000.0,0007.55,0003.88,0003.50
2023-07-01 01:59:00,SystemResetWarning,0833.5,5.00,000.00,029.5,028.4,000.0,037.9,031.1,33.2,0000.0,0007.65,0003.92,0003.52
